Theta_e
345 340 339 339 339 343 344 345 342 341 341 339 337 334 335 336 331 328 330 333 332 330 328 326 325 324 320 319 321 324 326 328 330 331 335 340 341 340 339 338 338 337 337 336 336 337 336 336 336 336 337 339 338 339 340 340 341 341 342 341 341 342 342 341 340 340 339 340 340 340 338 338 338 339 338 338 338 336 336 337 337 337 338 338 338
345 339 339 338 339 342 345 347 343 342 341 339 336 334 336 335 330 330 332 334 333 330 328 327 326 323 320 320 321 325 326 329 331 333 336 339 340 339 339 338 338 338 337 336 336 336 336 336 336 336 337 338 339 339 340 341 341 341 341 340 339 339 341 341 340 339 339 339 340 339 335 331 331 332 334 336 337 336 337 337 337 337 338 338 338
344 340 340 339 341 343 344 346 344 342 341 338 335 335 337 333 330 332 334 334 333 331 329 328 326 323 320 320 322 326 328 330 331 334 336 337 339 339 339 338 338 338 338 337 337 336 336 336 336 336 337 338 338 338 339 340 340 341 340 339 339 339 340 340 339 339 339 339 339 337 335 332 329 327 329 331 334 336 336 337 337 337 338 337 337
344 342 344 344 344 345 345 345 344 342 340 338 335 336 336 331 330 334 335 335 334 332 330 329 326 323 322 322 324 327 329 331 333 336 336 336 339 339 339 338 338 339 338 338 337 336 336 336 336 336 337 337 336 337 338 339 339 339 340 339 339 340 341 341 340 339 338 337 336 335 334 335 332 330 331 332 334 335 335 336 336 336 336 336 336
345 345 347 347 347 347 345 344 344 342 340 337 335 336 335 330 330 334 336 335 334 332 331 328 325 324 324 325 326 329 332 333 336 338 335 336 340 339 339 338 338 338 338 338 337 337 335 334 335 336 336 335 334 336 337 338 338 338 339 340 340 341 341 341 341 339 338 337 335 334 333 333 333 333 333 334 334 334 334 334 334 335 335 334 335
346 347 349 348 348 347 345 344 343 342 339 336 336 337 334 329 331 334 336 336 334 333 331 329 328 328 328 329 330 331 334 336 338 338 334 336 340 339 339 339 338 338 338 338 338 337 336 334 333 333 334 334 333 336 337 336 338 339 339 340 340 340 341 341 341 340 339 338 336 335 333 333 335 335 334 334 335 334 334 333 333 333 333 334 334
347 349 349 348 348 347 345 344 343 341 339 336 336 337 334 330 332 335 337 337 335 334 332 332 332 332 333 333 333 334 336 338 339 338 335 337 339 338 338 338 338 338 338 338 337 335 335 335 334 332 332 332 332 335 335 334 336 337 338 338 339 339 340 340 340 340 339 338 336 334 333 334 335 336 336 335 334 334 334 333 333 332 332 332 333
348 349 348 348 348 346 345 343 343 341 338 336 337 337 334 331 333 337 339 338 336 335 334 334 334 335 337 336 336 336 337 336 337 338 336 337 339 336 335 337 338 338 338 338 337 337 336 336 335 332 331 329 331 335 333 333 334 334 335 336 336 336 336 335 335 336 336 337 335 332 331 333 334 335 335 335 333 333 333 333 333 332 332 332 332
348 348 347 347 347 346 344 343 342 340 338 337 338 337 334 333 335 338 340 339 336 336 335 334 335 338 339 338 338 338 336 335 338 338 335 336 339 336 333 337 338 337 337 337 338 339 338 336 334 332 332 328 329 334 332 332 333 333 333 333 333 331 332 332 333 334 335 335 334 333 330 332 334 334 335 334 332 331 331 330 330 331 332 331 331
346 345 345 346 347 346 344 343 342 341 340 339 340 338 336 335 335 337 339 338 337 336 335 334 337 339 339 339 339 338 335 336 338 337 335 336 338 336 334 337 338 338 338 338 338 338 338 336 334 332 329 325 326 332 332 331 331 332 331 331 330 330 331 333 334 333 333 332 331 332 331 332 333 333 334 333 332 331 330 330 329 331 332 332 331
343 342 342 345 347 346 345 344 343 342 341 341 341 339 338 336 335 336 337 337 336 335 333 334 338 339 338 339 340 338 335 336 338 337 336 336 337 336 336 338 339 340 339 339 339 338 337 335 334 332 327 321 324 331 331 331 330 330 330 330 330 331 334 333 332 331 330 330 329 330 330 330 331 332 332 332 332 331 330 330 330 330 331 331 331
343 340 339 344 347 346 346 345 345 344 343 342 341 340 339 337 336 335 335 335 335 333 331 333 337 337 337 338 338 336 335 336 337 337 336 336 337 336 337 339 340 340 340 339 338 337 336 334 333 332 327 319 319 326 329 330 329 329 330 331 333 334 334 333 332 331 330 328 327 328 328 329 330 331 331 331 331 329 329 329 329 330 330 329 330
345 341 339 345 348 347 348 346 346 345 344 342 341 341 339 338 337 335 335 334 334 332 330 332 334 334 335 336 336 336 336 337 337 336 336 336 337 336 337 339 339 340 340 338 337 336 335 334 332 331 326 317 315 321 324 327 328 330 332 333 335 335 334 333 333 331 330 328 327 329 331 331 330 331 331 331 330 330 329 329 329 329 330 329 329
345 343 338 343 347 347 347 347 346 345 344 343 342 342 341 339 338 335 333 333 334 333 333 335 334 334 335 335 337 337 338 338 336 335 336 335 336 337 337 339 340 340 339 338 336 335 333 333 333 330 324 317 315 319 323 328 330 331 333 335 335 335 334 333 332 331 329 327 329 330 331 330 330 331 331 331 330 330 329 329 329 329 329 329 329
343 340 336 339 346 347 347 346 345 345 344 343 343 342 342 342 339 334 333 334 336 336 336 336 335 334 335 337 339 339 338 338 335 335 335 335 336 337 338 339 340 340 338 337 335 334 333 333 332 330 323 317 320 325 329 330 331 333 334 336 336 335 334 333 331 329 327 326 329 329 329 330 330 330 330 330 330 329 329 328 328 329 329 329 329
340 338 336 336 341 343 345 345 345 345 344 344 344 343 343 342 338 334 335 336 337 337 336 336 335 335 337 340 341 339 339 339 335 334 335 335 336 337 338 339 340 339 337 335 335 333 333 333 331 330 323 318 326 331 330 331 332 334 334 335 336 336 334 332 331 328 325 325 327 328 329 329 329 330 330 329 329 329 329 328 328 328 329 329 329
340 339 336 332 335 338 341 344 345 345 344 345 344 343 342 340 337 336 337 337 336 336 336 335 334 335 338 341 340 338 339 340 336 334 334 336 338 338 338 339 340 339 336 334 334 333 333 333 331 330 324 319 327 331 330 332 333 334 334 335 336 335 333 332 331 329 327 326 326 326 328 328 329 329 329 329 329 329 329 328 328 328 329 328 329
342 342 338 333 335 338 341 343 343 343 343 343 342 342 341 339 338 338 339 337 336 336 337 336 334 336 340 341 339 338 339 339 336 334 334 336 338 338 338 339 339 337 335 334 334 334 334 333 331 331 326 321 324 329 331 333 333 335 336 335 336 335 333 332 332 331 329 326 325 326 327 328 329 329 329 330 329 329 328 328 328 328 328 328 329
343 343 342 341 340 340 342 342 340 340 340 341 340 341 340 340 339 339 340 336 335 337 338 337 335 337 340 340 340 339 338 338 337 334 335 336 338 339 339 339 339 337 335 334 334 334 333 333 332 331 329 324 322 328 333 334 335 336 335 336 336 335 334 334 333 332 329 325 325 328 329 329 329 329 329 329 329 328 328 328 328 327 328 328 329
343 342 344 344 343 343 344 342 341 340 339 339 338 339 339 340 340 340 338 335 336 338 339 338 337 338 340 340 340 339 338 337 337 334 335 337 338 339 339 339 338 336 335 334 334 334 334 333 333 332 331 327 325 329 334 335 336 336 336 335 335 335 334 334 333 331 328 324 325 327 328 329 329 329 329 328 328 328 327 328 328 327 327 327 328
341 341 342 343 343 343 343 342 341 341 340 340 339 339 339 340 340 339 336 337 338 338 340 339 338 339 340 339 339 338 337 336 337 336 335 335 337 339 339 338 338 337 335 334 334 334 333 333 333 332 331 330 330 333 335 335 337 337 336 336 336 334 333 333 332 330 327 324 324 327 328 329 329 329 329 328 328 327 327 327 327 327 327 327 327
341 341 341 341 341 341 341 340 340 340 339 341 341 341 341 340 339 337 336 338 339 339 340 340 338 339 339 339 338 336 335 335 336 336 335 335 336 338 339 338 337 336 335 334 334 333 333 333 333 333 332 331 332 333 334 335 336 336 337 337 336 335 333 333 332 330 326 323 326 329 329 329 329 329 329 328 328 327 327 327 327 326 326 326 326
340 340 340 340 338 338 340 339 340 341 340 341 342 342 342 340 338 336 337 339 340 341 341 340 340 339 338 338 337 335 334 333 333 334 335 335 336 337 338 337 337 336 335 335 334 334 333 333 333 333 333 331 331 331 331 333 334 336 337 336 335 334 333 333 332 331 326 323 327 329 329 329 328 328 328 327 327 327 327 326 326 325 326 326 325
339 340 340 340 338 337 339 339 340 342 341 340 341 341 339 337 337 338 339 340 340 341 341 340 339 338 337 337 337 337 336 334 334 335 335 335 336 336 336 336 336 336 335 335 334 334 333 332 333 333 333 333 333 333 333 333 333 334 335 335 334 334 333 333 333 330 325 324 328 329 329 329 328 327 328 328 327 327 327 326 325 325 325 325 325
339 339 339 340 339 338 338 339 341 342 341 339 339 340 338 337 339 340 340 340 341 340 338 337 337 336 336 337 339 340 338 337 337 337 335 333 334 335 334 334 335 336 335 334 334 334 333 332 333 332 334 335 336 336 337 335 332 331 333 334 333 333 333 333 332 329 326 327 329 330 330 330 329 328 328 328 327 327 326 325 325 325 324 324 325
339 339 339 339 340 339 339 340 341 342 339 336 338 340 339 339 340 340 340 341 340 337 336 336 337 336 335 338 340 340 340 339 339 339 335 333 334 334 332 331 332 334 334 334 333 333 333 332 332 332 333 335 335 336 337 336 333 331 333 334 332 332 333 333 332 330 328 328 329 328 328 329 329 328 328 328 327 326 325 324 324 325 324 324 324
340 339 338 339 340 340 339 339 340 340 338 335 338 340 340 340 339 340 340 339 339 337 337 338 338 337 336 339 340 339 339 339 339 339 336 336 335 333 332 331 330 331 331 332 333 333 333 332 331 331 332 334 334 334 336 335 334 333 332 333 331 332 334 333 333 331 329 329 327 324 324 326 327 327 328 327 326 326 326 325 324 325 324 325 325
341 340 339 339 340 339 338 338 339 339 338 336 337 339 338 337 337 338 338 338 338 337 337 338 339 338 338 339 340 340 339 338 339 339 337 337 337 335 334 333 332 332 330 329 331 332 332 332 331 330 332 333 333 332 333 334 335 332 331 332 332 333 334 334 333 330 330 330 327 323 321 325 328 328 328 327 326 326 326 325 325 325 325 325 324
341 341 340 340 340 339 338 338 339 339 337 335 335 336 338 337 337 337 337 337 338 337 337 339 339 338 339 340 340 340 339 339 339 339 338 337 337 337 336 334 333 332 329 328 330 331 330 331 332 332 333 334 333 331 330 332 333 331 331 331 333 334 334 334 333 331 331 329 327 324 322 326 328 327 327 327 327 326 326 326 326 325 324 324 323
342 341 340 340 339 339 338 338 340 339 337 335 334 337 339 339 339 339 338 338 338 338 339 339 339 338 339 340 340 339 339 339 339 339 338 337 337 338 337 336 335 331 330 332 332 332 331 332 333 333 333 333 332 331 330 331 331 330 331 330 332 334 335 335 334 331 331 329 326 324 323 325 326 325 327 328 328 327 326 327 326 325 324 324 324
342 341 340 339 340 339 338 339 340 339 338 335 336 339 340 338 339 339 338 338 338 339 339 339 339 339 338 339 339 339 338 338 338 338 338 337 337 337 335 335 335 333 331 335 334 333 334 334 334 334 333 333 332 332 331 330 329 330 330 330 331 334 335 334 334 332 329 328 327 325 323 324 325 327 328 329 328 327 325 325 326 326 326 325 324
342 341 340 339 340 340 339 340 340 339 339 336 337 340 338 337 338 337 336 337 337 338 339 339 339 338 337 337 338 338 337 337 337 338 337 336 336 335 334 334 335 334 334 335 334 335 335 335 334 333 334 334 333 332 331 330 330 330 331 330 330 333 335 334 334 332 329 328 328 327 326 325 325 327 327 328 327 326 326 326 326 326 326 325 324
342 341 340 339 339 340 340 340 340 338 337 337 338 338 337 336 337 336 336 337 338 338 338 339 338 338 337 337 337 337 335 336 336 336 336 336 335 335 334 334 335 334 335 335 335 335 335 335 334 333 334 334 333 333 332 331 331 331 332 330 330 333 335 334 334 333 330 329 328 329 328 327 326 325 325 326 327 327 327 327 326 325 324 323 324
342 341 341 340 339 340 340 339 339 337 335 336 338 338 336 336 336 337 338 338 339 339 339 339 338 338 337 337 336 335 335 335 335 335 335 336 335 335 334 334 334 333 334 335 336 335 334 334 334 334 334 334 333 333 332 331 331 331 331 330 331 333 334 334 335 333 331 329 328 328 329 329 328 327 325 325 326 326 326 326 327 325 323 321 322
342 341 341 340 339 339 339 339 339 337 337 337 338 338 337 336 337 339 340 339 339 339 339 338 338 338 337 337 336 336 336 336 335 335 335 336 335 335 334 334 335 335 334 335 336 335 334 334 335 334 333 333 333 332 332 332 332 331 332 331 331 332 334 335 335 334 332 330 329 329 329 329 329 329 327 325 325 325 325 326 326 325 324 323 321
341 341 341 340 339 339 339 340 338 337 338 338 338 338 337 337 336 338 339 339 339 338 338 338 338 338 338 337 337 337 337 336 335 335 335 335 335 335 335 335 335 336 336 337 336 335 335 335 335 333 332 333 332 332 333 333 332 332 332 332 331 331 333 335 334 334 333 332 331 330 329 329 329 328 328 327 326 325 325 326 326 325 326 326 325
341 340 341 340 340 339 339 340 338 337 339 339 338 339 339 337 335 337 338 339 338 338 338 337 337 338 338 338 338 338 336 336 336 335 335 335 335 335 335 335 334 335 336 337 337 336 336 336 335 332 332 333 332 332 333 333 334 333 333 332 331 331 333 334 334 334 334 333 332 331 330 330 329 328 328 329 329 328 327 327 328 328 328 327 328
340 340 340 340 339 338 339 339 338 338 339 339 338 339 339 336 335 337 337 337 338 338 337 336 337 337 337 338 338 338 336 335 335 334 334 334 334 335 336 335 334 335 335 336 336 336 335 335 335 332 332 333 332 332 332 333 333 333 333 334 333 332 332 333 333 333 333 333 332 332 331 331 330 329 329 329 329 329 328 329 329 329 329 328 328
338 339 339 339 337 336 338 339 338 339 338 338 339 339 338 334 335 336 335 335 336 336 336 336 336 336 336 337 338 338 335 334 334 333 333 333 335 336 336 336 335 335 335 335 335 335 335 335 335 333 331 332 332 332 333 333 332 333 334 334 334 334 333 333 334 333 332 332 332 332 332 331 330 330 329 328 327 328 328 328 329 329 329 329 329
339 339 339 338 337 337 339 339 338 339 338 338 339 338 336 334 335 336 335 335 335 335 336 336 337 336 336 336 336 337 335 334 334 334 334 334 335 336 336 335 335 335 334 334 334 334 334 334 333 332 331 332 332 332 333 333 332 332 333 332 333 333 333 333 333 333 332 332 331 331 331 331 330 330 330 328 327 327 327 328 328 328 328 329 330
339 340 339 338 338 338 339 339 339 339 338 339 339 337 336 334 335 336 336 335 335 335 336 336 336 335 335 336 336 335 335 334 335 335 334 334 335 336 335 335 335 334 333 333 334 334 334 333 333 332 331 332 332 332 333 333 332 331 331 332 332 332 332 332 332 332 331 331 331 331 331 331 331 331 330 329 328 327 328 328 329 328 328 329 329
338 339 337 336 338 339 339 339 339 339 338 338 338 339 338 337 336 336 336 335 334 335 336 335 334 334 335 336 336 335 335 335 334 334 334 334 335 335 335 334 333 333 333 333 334 334 334 333 333 332 331 332 332 333 333 332 333 332 331 330 331 331 331 331 331 331 330 330 331 331 331 331 331 330 330 330 330 329 329 329 329 328 327 327 328
337 337 335 335 338 339 339 339 339 338 338 338 338 338 338 337 337 336 335 335 333 334 336 335 334 335 336 336 335 335 335 334 333 334 334 335 334 335 335 333 332 333 332 333 333 334 334 333 332 332 332 334 333 332 333 332 333 332 331 332 331 331 331 330 330 331 330 330 330 330 331 331 331 330 330 330 329 329 330 330 330 328 326 326 326
335 335 334 336 339 339 339 339 339 338 338 338 337 337 337 336 336 335 335 335 335 335 335 335 335 336 336 336 335 335 334 334 334 334 334 334 334 334 334 332 332 333 332 333 333 333 334 332 332 332 333 335 334 333 333 332 332 332 332 333 331 331 333 331 330 330 330 330 330 330 330 331 331 330 330 330 329 329 329 329 330 328 327 327 327
334 334 330 333 338 339 339 339 338 338 338 338 337 337 337 335 335 335 334 334 335 335 335 335 336 335 335 335 335 334 334 334 334 334 333 333 334 334 333 332 333 333 333 333 334 333 333 332 332 333 333 334 334 334 333 332 331 331 332 333 333 334 334 331 330 330 329 329 329 330 331 331 330 329 329 329 329 329 329 329 329 329 328 328 328
334 335 332 332 336 338 339 339 338 338 338 338 338 338 336 335 335 334 334 334 334 335 335 335 335 335 335 335 335 335 335 335 334 333 333 333 334 334 333 333 333 333 333 334 334 334 333 333 333 333 333 333 334 334 333 332 331 331 331 332 333 335 332 330 331 331 329 329 329 330 330 330 330 329 329 330 330 329 329 328 329 329 328 328 328
334 336 336 336 338 338 339 339 338 338 338 338 338 337 336 336 335 334 334 334 334 334 334 334 334 334 335 335 335 335 336 335 334 333 333 333 334 333 333 333 334 334 334 334 334 334 333 333 334 333 332 332 333 334 333 333 332 332 332 331 332 333 331 330 331 331 331 330 330 330 330 330 330 329 329 330 329 329 329 329 329 329 328 328 328
336 338 337 337 340 340 339 339 339 339 338 338 338 338 337 336 336 334 334 334 334 334 334 334 333 333 335 335 335 335 335 335 334 333 333 333 333 333 333 334 334 334 334 334 333 333 333 334 334 333 333 332 332 333 334 333 332 332 332 332 333 332 331 330 330 329 330 331 330 329 329 330 330 329 329 329 329 329 329 329 329 329 329 328 328
338 340 339 339 340 341 340 339 339 339 338 338 338 337 337 336 336 334 333 333 334 334 334 334 334 334 335 335 335 334 334 334 334 334 333 333 333 333 333 333 334 335 334 334 334 333 334 333 333 333 332 332 332 332 333 333 332 332 332 333 332 331 331 331 330 329 329 330 331 330 328 328 329 329 329 329 329 329 328 328 328 328 328 328 328
337 340 340 340 341 341 340 339 339 338 338 337 337 337 336 336 335 335 334 334 334 334 334 333 333 334 335 335 335 334 334 333 334 333 333 333 334 334 333 333 335 335 334 334 334 334 333 333 333 332 332 332 332 331 332 332 332 332 332 332 331 331 331 331 330 329 329 329 330 329 328 329 328 328 328 328 328 328 328 328 327 327 328 328 328
335 338 339 339 340 340 339 339 338 337 337 337 337 336 335 335 335 334 334 334 335 335 334 333 333 333 334 335 334 334 334 333 333 333 333 334 334 334 334 333 333 333 333 334 334 333 333 333 333 333 332 331 331 331 332 332 331 331 331 331 330 330 330 331 330 330 329 329 329 329 329 328 328 328 328 328 328 328 327 327 327 327 327 328 327
Wind_Speed
25 28 27 24 23 22 21 20 21 24 24 23 22 21 20 19 20 23 24 24 24 22 21 20 19 18 18 19 18 17 16 16 16 17 18 19 19 19 18 19 19 19 18 18 19 19 18 18 18 18 18 18 19 20 20 20 20 20 20 20 22 23 23 23 23 22 23 22 22 22 21 20 19 19 21 22 19 19 21 21 22 22 21 21 21
26 28 26 24 24 23 22 20 22 24 23 23 22 21 20 19 21 23 24 24 23 22 20 19 19 18 18 18 18 17 16 16 16 17 17 18 19 19 18 19 19 19 19 19 19 18 18 18 18 18 17 18 18 19 20 20 21 21 21 22 23 24 24 25 24 23 22 22 22 22 21 20 20 19 20 20 19 19 20 20 21 22 21 21 21
29 27 24 24 23 23 22 21 23 24 23 23 22 21 19 18 21 23 24 23 23 22 20 19 19 18 18 18 18 17 16 16 15 16 16 17 19 18 18 19 19 20 20 20 19 18 18 17 17 17 17 16 17 18 19 20 21 21 21 22 23 24 24 25 25 24 23 22 21 21 20 19 20 19 19 19 19 18 18 19 20 21 20 20 20
30 25 24 24 23 23 22 22 23 23 23 22 22 20 19 19 21 23 23 23 22 22 20 20 19 19 18 18 18 17 16 16 16 16 16 17 19 18 18 18 19 19 19 19 19 19 18 18 17 17 16 14 17 20 20 20 21 21 21 22 23 22 22 23 23 22 22 21 20 21 21 20 19 20 20 20 20 19 18 18 19 20 19 19 20
29 25 25 24 24 23 21 22 22 23 23 22 21 20 19 19 21 23 23 23 22 21 21 20 19 19 18 18 18 17 17 16 16 15 16 18 18 17 18 18 18 18 18 19 19 19 18 17 16 16 15 13 17 20 20 21 22 22 22 21 21 20 20 20 20 21 21 19 18 19 20 20 20 19 19 20 19 19 18 19 19 18 18 18 19
28 27 26 25 24 22 21 22 21 22 22 22 21 20 19 19 22 22 22 22 21 21 20 20 19 19 18 18 18 18 18 17 16 15 16 19 18 17 18 17 17 17 17 18 17 18 17 16 15 14 13 13 17 18 19 20 20 20 20 20 20 19 18 17 17 18 19 19 18 18 19 20 21 19 18 19 19 19 18 18 18 18 17 17 18
28 27 25 25 23 22 21 21 21 21 21 22 21 20 19 20 22 22 22 21 20 20 19 20 19 19 18 18 18 18 18 16 15 14 17 19 16 15 17 17 17 16 16 15 15 16 16 15 14 13 12 13 17 18 19 19 18 18 18 17 17 16 16 15 14 12 12 15 17 17 18 19 20 18 17 17 18 19 19 19 18 18 18 17 17
27 24 23 25 22 21 20 20 20 20 21 22 21 20 19 20 22 22 20 19 19 19 19 18 18 18 18 18 19 18 17 16 15 15 18 18 15 14 16 17 15 15 14 14 14 14 14 14 13 13 12 12 17 19 18 18 17 16 15 14 13 12 11 9 8 8 9 13 16 17 17 18 19 18 17 17 17 18 18 18 18 18 17 17 18
25 21 22 23 21 20 20 20 20 20 21 21 21 20 19 19 21 21 19 18 19 19 18 18 18 17 17 18 18 18 17 16 16 16 17 18 14 13 16 16 14 14 14 14 14 13 13 13 12 12 11 12 16 19 17 16 15 13 13 12 10 9 9 11 10 13 17 18 18 18 16 16 18 17 16 15 15 16 17 17 18 18 18 18 18
22 19 21 23 22 21 20 20 20 20 20 21 21 20 19 19 20 20 18 18 19 18 17 17 17 17 18 18 17 17 17 17 16 16 17 17 14 13 14 15 14 13 14 13 13 13 12 11 10 10 10 11 15 18 17 14 13 12 11 9 8 9 13 18 18 18 20 18 17 18 17 16 16 16 15 14 15 17 17 17 18 18 18 18 18
22 19 22 24 22 21 21 20 21 21 21 21 21 19 19 19 19 19 19 19 18 17 17 17 17 18 19 17 16 16 17 17 16 16 16 15 14 13 13 15 14 13 13 13 12 11 10 10 9 9 10 11 14 17 16 13 11 10 9 9 10 12 16 20 20 18 17 16 16 17 18 17 16 15 14 14 16 17 18 18 17 17 17 17 18
25 23 23 25 22 21 21 20 21 21 21 21 20 19 18 19 18 17 18 19 18 16 17 18 18 18 18 17 16 16 16 16 16 16 16 15 14 13 14 14 14 13 13 12 10 9 8 9 9 9 9 11 14 16 15 13 11 10 10 11 14 17 19 20 18 16 15 15 16 18 19 18 17 16 15 15 16 17 17 17 17 17 17 17 17
26 26 26 24 22 21 21 20 21 20 20 20 19 18 18 18 17 17 18 18 17 15 17 18 18 18 17 17 16 16 16 16 16 17 16 15 14 14 13 13 12 12 12 10 8 7 7 8 8 9 9 11 13 15 15 13 12 11 12 14 16 18 19 20 16 14 14 15 19 21 20 18 17 16 16 16 16 17 17 17 17 17 17 17 17
28 30 29 26 23 22 22 21 21 20 20 19 18 17 17 17 16 18 18 17 16 15 16 17 18 18 17 17 15 15 16 16 16 17 17 16 15 14 13 11 11 11 10 8 7 7 8 8 9 9 10 11 14 16 16 14 13 12 13 15 18 19 18 18 15 13 15 17 20 20 18 18 17 16 16 16 16 17 16 17 16 17 17 17 17
32 33 31 29 27 24 23 22 22 22 21 21 20 19 18 16 17 19 18 16 16 16 16 16 18 18 17 16 14 15 15 16 16 17 17 16 15 14 13 11 10 10 8 7 7 7 8 8 9 10 10 13 17 18 17 14 13 12 14 16 18 18 18 17 14 14 15 17 19 19 18 17 17 16 16 16 16 16 17 17 17 16 16 16 17
31 35 34 32 30 27 25 24 24 23 23 22 21 21 19 17 18 19 17 16 16 16 16 18 19 17 17 14 13 14 14 15 15 16 16 16 15 14 12 11 10 9 7 8 8 8 8 9 10 10 11 15 18 18 16 13 12 13 14 16 19 18 17 16 15 15 16 17 17 18 18 17 16 16 16 16 16 16 16 16 17 16 16 16 17
30 33 33 33 32 30 29 28 28 26 25 23 22 22 21 20 20 19 17 16 16 17 18 19 19 17 16 14 13 13 14 14 14 14 15 16 15 13 12 11 10 8 7 9 9 8 8 9 10 11 12 15 18 17 15 12 12 14 15 17 20 20 18 16 16 16 15 16 16 17 18 16 16 15 15 15 15 16 16 16 16 16 15 16 16
28 29 31 33 34 33 33 33 32 30 29 27 25 25 24 24 22 21 19 17 18 20 20 20 18 16 15 14 13 13 13 13 12 13 14 16 14 13 12 11 10 8 8 10 9 9 9 9 10 11 12 15 17 16 14 13 13 14 15 17 19 18 18 16 15 14 13 14 15 17 17 16 15 15 14 14 14 15 15 15 16 16 16 16 16
25 25 27 29 31 32 34 34 34 33 33 31 30 29 27 26 24 23 21 19 20 21 20 20 18 17 15 14 13 13 12 12 12 13 15 15 14 13 12 11 9 8 9 9 9 9 9 9 10 11 12 13 16 16 14 14 14 15 16 18 17 16 15 12 12 12 12 13 16 18 17 15 15 15 14 14 14 14 14 14 14 15 15 15 15
25 24 24 25 26 28 30 31 32 32 33 33 33 32 31 29 27 25 23 22 22 21 20 19 18 17 16 14 13 13 12 12 12 13 14 15 14 13 12 11 9 8 9 9 10 9 9 9 9 10 12 13 16 16 15 14 15 15 17 19 17 14 11 9 11 11 11 14 15 17 17 15 15 15 14 14 14 13 13 14 14 14 14 14 14
25 24 23 23 23 25 27 28 29 30 31 31 32 32 32 32 30 27 25 23 22 21 20 18 18 17 16 14 13 13 13 13 13 14 14 13 13 12 12 11 8 7 8 9 10 10 10 10 9 10 11 14 16 16 14 14 15 16 16 16 15 13 11 10 10 11 12 13 15 16 16 16 15 14 14 14 13 13 13 13 13 14 14 14 13
23 23 23 25 25 26 26 27 28 27 28 28 27 28 29 30 29 28 26 24 21 21 20 19 18 17 15 14 14 14 13 12 13 14 14 12 12 13 12 10 8 7 8 9 10 10 9 9 10 10 11 13 14 13 12 12 13 13 11 11 12 13 12 10 9 11 12 13 15 16 15 15 15 15 14 14 13 13 13 13 13 13 13 14 13
22 23 25 27 27 26 25 27 26 24 25 25 25 25 26 27 27 27 26 24 22 21 21 20 18 16 15 14 14 13 12 12 13 14 14 12 12 13 12 10 9 8 8 8 9 10 9 9 10 9 10 11 11 10 9 10 10 8 9 11 13 14 11 8 8 9 11 14 16 15 13 13 14 14 14 13 13 13 13 13 13 13 13 13 13
23 24 26 27 27 27 26 27 25 22 24 23 23 25 26 26 26 25 24 23 23 22 22 21 19 17 15 14 14 13 12 12 12 12 13 13 13 12 11 11 10 8 8 8 9 10 9 9 9 9 11 10 10 9 7 6 4 5 8 12 14 13 10 9 8 9 11 15 17 15 11 11 12 13 14 13 13 13 13 12 13 13 13 13 13
22 23 25 26 26 26 26 27 24 22 23 23 24 24 25 26 24 23 24 24 25 25 24 23 21 18 16 15 13 13 12 12 13 12 13 13 13 12 11 11 11 10 8 8 10 10 9 9 9 10 10 10 9 7 5 3 1 3 3 7 11 10 11 10 8 9 12 16 17 14 11 11 12 13 14 13 12 12 12 12 13 13 13 13 13
21 22 23 25 25 25 26 26 23 22 24 23 24 24 24 25 23 23 25 26 27 27 26 24 22 19 18 15 14 14 13 13 15 14 13 12 12 12 10 9 10 11 10 10 10 11 10 10 10 10 9 8 6 4 5 3 2 2 2 3 7 7 8 9 8 8 11 15 16 13 11 11 11 12 13 13 12 12 11 11 13 13 12 13 13
20 21 23 24 24 24 26 27 24 24 24 23 25 25 24 24 24 24 25 26 27 27 25 23 21 20 18 17 16 15 14 14 15 15 13 12 11 11 9 7 8 10 11 11 11 12 11 10 10 9 8 6 4 3 6 6 5 3 1 3 8 9 8 9 8 8 11 14 14 12 12 12 12 12 12 12 12 12 12 11 12 12 12 12 13
18 19 21 22 22 25 28 29 27 27 26 25 26 26 25 25 24 24 25 25 26 26 25 24 22 21 19 17 17 16 15 15 15 14 13 12 10 9 8 7 7 8 10 11 11 12 12 11 10 9 7 5 4 5 6 8 9 6 3 3 8 11 10 9 8 9 12 14 14 12 13 14 13 12 12 12 12 12 12 11 11 11 12 12 12
19 19 20 21 22 25 29 30 29 29 28 28 28 28 26 25 25 25 25 25 25 25 25 25 24 23 20 18 17 15 15 15 15 15 13 12 10 8 8 8 7 7 9 11 10 9 10 11 9 7 8 6 5 6 6 8 9 6 3 3 8 13 12 10 9 10 13 14 14 12 13 15 13 12 12 12 12 11 11 11 11 11 11 11 11
20 20 20 22 23 25 29 31 29 28 28 29 30 28 26 26 26 25 25 24 24 24 25 24 24 23 21 19 18 16 14 14 15 14 13 11 10 9 9 9 7 7 9 10 9 7 8 10 8 8 8 6 6 7 6 7 7 5 4 5 12 15 12 11 10 11 14 15 14 13 13 14 14 13 13 12 12 11 11 11 10 10 10 10 10
21 20 21 23 23 24 29 30 27 26 27 28 30 28 26 25 25 25 24 23 23 24 23 23 23 23 21 20 19 18 15 14 15 15 14 12 12 12 10 10 11 11 8 7 9 8 7 8 9 10 8 7 7 6 6 6 5 6 8 9 14 16 13 13 12 12 14 14 14 14 14 14 14 14 13 12 11 11 11 11 11 10 9 9 8
21 21 23 25 24 25 28 28 25 25 25 27 29 28 25 23 23 24 22 22 23 23 22 21 23 22 20 20 19 19 17 16 17 16 15 15 14 13 12 11 12 13 9 9 11 9 8 9 10 10 7 6 7 6 6 7 7 9 10 9 13 17 15 14 13 13 14 14 14 13 14 14 13 13 13 12 11 10 11 11 11 10 9 8 7
19 19 22 25 25 25 25 25 25 27 27 25 27 27 24 21 21 23 21 22 21 20 20 21 22 21 19 20 19 19 18 17 18 17 15 15 14 13 13 12 13 12 10 10 11 10 10 10 10 10 7 6 7 7 8 9 9 10 10 10 14 17 17 16 14 14 14 14 14 13 13 13 13 12 12 12 12 11 11 11 10 9 9 9 8
20 19 20 23 24 23 24 25 26 29 29 24 24 23 21 21 21 22 21 21 19 18 20 21 21 20 20 19 18 18 17 15 17 17 14 15 14 12 12 13 12 11 9 10 10 11 10 10 10 9 8 7 7 8 9 11 12 11 11 13 16 17 17 16 15 15 14 14 14 14 13 13 12 11 11 12 12 12 12 12 10 9 10 10 10
19 18 18 20 22 23 25 26 26 28 26 22 22 20 18 20 21 21 19 18 19 19 20 20 19 19 19 18 18 17 15 14 15 15 13 14 13 12 12 13 12 11 10 9 9 10 9 8 8 9 10 9 9 11 11 12 13 13 12 13 16 17 17 16 16 15 14 14 15 15 14 12 11 10 10 11 12 12 12 12 12 11 11 11 11
17 18 19 18 20 23 25 26 26 26 22 19 21 19 17 17 18 20 19 18 20 20 19 18 17 18 17 17 17 16 14 13 13 13 13 13 13 13 14 14 13 13 12 10 10 9 8 7 7 9 10 9 12 16 13 12 13 13 12 12 14 16 16 16 15 15 14 13 13 14 14 12 10 10 10 10 11 11 12 12 12 11 10 11 11
17 19 20 19 20 22 24 25 26 25 20 19 19 18 16 13 15 19 18 18 19 18 16 17 17 17 17 16 16 16 14 14 13 13 13 13 13 14 16 15 14 14 13 13 11 9 9 8 5 6 8 9 14 16 13 14 15 14 13 12 12 13 16 16 14 13 13 13 13 13 13 12 11 10 10 10 10 10 10 9 9 9 9 9 9
18 20 22 22 19 20 21 21 23 22 20 21 20 18 14 10 14 16 14 14 16 15 14 15 16 17 18 16 17 17 15 14 13 12 12 13 14 15 15 15 15 15 14 13 11 11 12 9 4 6 9 13 14 14 15 18 17 15 15 14 13 13 15 15 14 12 11 11 13 13 13 12 11 10 10 10 9 9 9 8 8 8 9 9 9
21 19 19 19 16 17 19 17 18 20 22 23 21 18 13 10 15 16 13 12 13 14 15 15 14 16 18 17 17 19 17 14 14 13 14 15 15 15 14 14 14 14 14 12 10 11 12 11 7 7 12 15 13 15 19 20 16 13 14 14 12 11 12 13 13 11 9 9 11 13 13 12 12 11 10 10 9 9 9 8 7 7 8 8 8
21 19 17 15 15 19 20 17 18 23 25 24 20 19 16 13 14 15 15 13 13 15 17 16 14 14 16 17 18 19 19 16 15 16 16 16 17 15 14 14 14 13 13 12 11 10 11 11 9 9 14 16 13 16 21 21 18 12 12 13 12 11 9 9 10 10 9 9 10 11 13 13 13 12 11 10 10 9 9 8 8 7 7 7 7
21 22 22 20 20 21 22 20 21 25 25 23 21 20 20 17 16 18 19 18 17 17 17 17 15 15 15 17 19 19 19 18 17 17 16 17 17 16 14 14 13 12 11 12 11 11 12 12 11 11 16 19 14 15 21 22 21 16 12 10 11 11 9 8 8 9 9 8 9 10 12 12 13 14 13 12 11 10 10 9 8 7 7 7 7
24 26 27 24 22 21 23 23 23 25 23 23 23 20 20 21 20 21 21 21 21 18 17 17 17 18 18 18 19 20 20 19 18 17 16 18 17 15 14 13 13 11 11 12 12 12 13 14 14 12 14 20 17 19 24 21 18 17 15 10 7 9 9 8 8 8 8 7 8 10 10 11 12 14 13 11 11 10 10 9 9 8 8 9 8
27 29 27 23 24 24 25 25 24 25 23 23 23 20 19 19 18 17 18 20 21 17 16 17 17 18 19 20 20 21 21 20 18 18 18 18 16 15 13 13 12 11 11 12 11 12 13 14 14 12 13 19 19 22 23 16 16 19 16 8 3 4 5 5 6 5 7 8 9 10 10 11 12 12 12 11 10 9 9 10 10 10 10 9 9
25 27 28 27 29 29 28 27 26 25 22 20 19 17 17 16 15 15 16 19 19 16 16 17 17 17 20 21 21 21 22 20 19 19 18 16 15 13 13 13 12 11 11 11 12 14 14 13 13 13 14 17 17 17 14 12 18 19 10 4 3 3 2 3 6 5 6 10 8 8 11 12 12 10 10 10 11 10 9 11 11 11 10 8 8
26 26 30 31 32 31 29 29 28 25 23 20 19 18 17 16 15 15 16 18 17 17 18 19 18 19 20 22 22 22 22 21 19 18 17 16 14 13 13 13 12 10 11 11 13 13 12 13 13 12 14 16 16 14 11 11 18 16 8 6 5 2 1 5 7 5 5 8 8 8 10 11 11 10 10 12 12 11 10 10 11 11 10 9 8
29 29 30 31 31 29 28 28 27 26 25 23 22 21 20 21 20 20 20 19 19 20 23 23 22 22 22 22 23 23 22 20 19 17 17 16 14 13 13 13 12 10 10 12 12 11 11 12 12 12 13 15 16 15 14 14 15 12 9 8 3 3 9 9 5 3 4 7 8 9 9 9 11 11 11 12 12 12 11 11 11 11 10 9 10
31 30 27 26 29 28 28 28 26 25 25 24 23 23 23 24 24 24 23 23 22 21 24 25 24 24 23 22 22 23 22 20 20 18 17 15 14 13 13 13 12 11 11 10 10 11 12 11 11 12 12 14 17 16 16 15 14 12 10 7 4 9 20 15 6 4 3 5 8 9 9 10 11 12 12 12 11 12 12 11 11 11 11 9 10
31 29 27 26 28 30 30 29 27 26 25 25 25 24 25 25 25 24 21 23 23 22 23 23 22 23 23 22 22 23 22 20 19 18 16 15 13 12 13 13 13 12 10 10 10 11 12 12 11 12 11 13 15 15 16 15 14 12 10 9 9 13 21 17 13 12 5 2 5 7 9 11 11 12 12 12 11 11 11 10 11 11 11 11 11
28 29 32 29 27 30 31 30 29 27 25 25 25 25 25 26 25 23 20 21 22 21 23 23 23 23 22 21 22 22 21 19 18 16 15 14 13 12 13 14 14 13 11 11 11 11 12 13 13 12 11 12 13 14 15 14 13 13 12 12 13 16 16 14 16 16 9 5 4 3 7 9 8 9 11 10 10 10 10 10 9 10 11 12 11
28 30 33 29 25 29 32 30 29 27 25 23 24 25 26 26 25 23 21 20 20 19 21 23 23 23 21 20 20 21 20 18 17 15 14 13 12 13 14 14 14 13 12 12 12 12 11 11 11 11 12 12 12 13 14 12 11 13 13 13 15 16 14 10 13 16 12 8 5 5 10 10 8 9 10 10 10 9 10 11 10 10 12 13 11
26 29 31 28 24 25 28 29 26 25 23 21 23 24 25 26 26 24 22 22 21 20 20 21 22 22 21 19 19 20 18 17 16 15 15 13 11 13 14 12 13 13 12 13 13 12 12 11 10 11 11 12 12 13 12 10 11 13 13 12 15 17 14 10 14 17 13 9 7 7 10 12 12 12 11 11 11 9 9 10 12 12 13 13 11
Wind_Direction
151 154 152 154 153 151 150 148 148 148 148 150 149 146 142 138 135 136 136 134 133 131 129 126 122 119 119 120 119 116 111 106 102 99 98 97 96 95 93 91 87 84 83 83 83 86 89 91 93 92 91 90 92 93 88 90 95 96 96 95 95 96 97 96 93 92 92 90 87 86 86 85 84 87 89 84 82 83 82 80 79 79 78 78 77
154 152 152 154 152 151 149 145 145 147 148 150 149 146 143 139 137 138 137 136 135 133 131 128 125 123 122 123 121 117 113 108 104 102 101 99 96 96 95 92 89 85 82 82 82 84 87 91 93 93 92 91 90 90 90 92 96 97 97 97 97 98 99 98 96 93 90 86 82 80 80 81 82 86 92 89 84 82 80 79 77 75 75 76 75
150 148 148 150 150 150 149 145 145 148 149 151 150 148 144 141 140 141 140 139 138 135 134 131 128 126 125 124 122 120 114 109 105 104 103 102 99 98 97 94 91 86 82 80 80 82 84 88 91 94 94 90 91 93 94 96 99 99 99 100 98 97 98 98 97 96 94 92 89 85 81 77 75 80 87 87 86 83 80 79 77 75 74 74 73
144 140 141 144 145 146 148 147 147 148 150 152 151 149 146 144 144 145 144 142 140 137 136 133 131 129 126 126 124 121 115 110 106 104 104 104 103 101 99 97 94 88 84 80 79 79 81 86 89 94 93 92 99 102 102 102 104 104 103 101 97 95 95 95 94 94 93 93 92 88 84 80 76 78 83 83 85 85 84 83 80 77 74 75 74
136 133 135 138 140 144 147 146 148 149 151 154 152 150 148 147 148 149 148 145 142 139 137 135 133 130 128 127 125 121 115 111 108 106 105 106 106 104 103 100 95 90 85 82 80 79 78 82 88 94 91 98 109 109 108 106 106 106 106 103 100 97 94 94 92 91 88 87 88 87 85 85 82 81 85 86 85 85 85 84 83 82 78 75 74
126 126 130 133 138 143 146 146 147 149 152 155 154 153 150 150 153 153 150 147 143 139 137 135 133 131 130 129 127 122 117 113 112 111 107 108 109 107 105 101 97 93 88 85 83 80 76 76 82 91 92 104 116 116 112 110 110 110 108 104 102 100 96 95 95 92 87 86 86 88 88 88 89 86 88 89 88 87 85 84 84 85 82 77 74
113 118 127 131 137 143 146 147 147 150 154 157 157 155 153 153 156 155 150 146 142 139 136 134 133 132 131 130 129 125 122 119 118 116 111 111 113 111 107 103 99 95 91 89 86 82 78 76 77 84 93 111 122 121 117 114 113 112 108 105 102 97 98 96 96 89 84 92 88 86 89 89 93 92 91 91 90 88 86 85 85 85 84 80 77
103 112 125 131 138 144 148 148 149 151 155 158 158 158 155 154 155 154 147 143 142 139 137 136 135 133 130 131 131 130 127 124 124 120 115 115 116 111 107 105 101 99 96 93 90 83 81 81 78 79 88 114 128 126 120 117 114 113 110 109 102 95 94 76 65 61 74 105 95 85 90 89 91 92 92 92 93 92 89 88 87 87 86 84 81
101 110 124 133 141 147 151 151 153 154 157 159 158 158 154 153 154 153 146 143 145 141 141 140 137 133 131 133 134 133 131 128 128 125 119 119 120 110 108 111 105 101 98 95 90 85 84 83 82 82 86 110 131 132 123 118 117 116 113 108 99 85 60 45 63 86 94 111 103 92 94 92 91 90 91 91 93 94 91 90 89 89 87 86 84
111 116 128 137 146 152 155 155 156 156 158 157 155 154 151 151 153 156 153 150 149 146 144 144 139 135 136 135 134 135 135 134 133 129 122 124 125 113 110 113 106 101 99 94 90 89 90 89 87 87 91 110 131 137 129 124 122 117 111 100 85 63 56 69 89 100 101 106 101 96 96 96 92 88 90 90 92 92 90 88 88 90 89 88 87
129 133 138 143 150 155 156 157 156 155 156 154 152 150 149 150 153 158 159 157 153 149 148 147 140 140 142 139 137 138 140 140 138 132 127 131 130 117 114 114 109 107 102 96 95 98 99 94 90 87 90 107 128 140 138 134 125 114 102 84 70 61 70 89 97 97 96 94 92 97 98 97 93 89 90 89 90 91 90 88 89 91 90 88 87
138 142 144 144 149 154 153 154 152 152 152 151 151 149 151 152 154 158 159 159 155 152 152 149 145 146 147 144 143 142 143 143 140 136 134 138 134 125 121 117 115 111 106 104 107 108 101 92 86 86 90 103 122 139 144 139 124 109 94 78 69 68 81 98 101 96 92 86 88 92 92 92 90 89 89 88 89 91 91 90 90 91 90 90 88
135 137 141 141 146 151 150 151 150 150 149 149 152 152 155 155 157 158 157 157 154 153 151 150 149 150 150 148 148 145 145 142 140 141 143 145 138 131 125 120 118 113 112 116 118 111 100 89 80 85 95 106 121 135 141 137 124 106 88 74 69 74 91 104 106 99 89 86 88 89 90 90 88 89 89 89 90 91 92 91 91 91 91 91 90
133 135 138 141 145 151 151 151 150 149 150 152 155 156 157 158 161 159 157 156 153 153 151 150 150 152 153 150 149 148 147 142 142 146 148 149 142 136 131 127 125 119 121 122 116 108 97 87 81 87 99 112 123 130 134 130 116 96 77 69 71 81 98 106 105 95 88 89 91 93 92 89 88 89 90 90 90 90 91 90 91 92 91 92 92
138 140 143 145 147 152 152 151 152 153 155 157 159 161 161 161 163 161 157 157 154 154 153 150 151 155 154 152 152 151 150 146 145 149 152 151 145 142 138 137 136 128 128 123 111 103 95 87 86 92 104 118 125 128 128 120 103 84 74 72 71 83 105 111 103 91 89 94 96 95 91 90 90 89 89 89 90 91 91 90 90 91 91 92 92
144 146 148 147 146 152 155 155 156 156 157 160 162 162 163 162 162 160 159 159 158 157 154 152 155 157 155 156 156 155 156 151 150 153 156 154 148 147 145 145 143 135 133 122 111 106 96 90 92 95 106 123 129 129 125 110 95 83 77 73 66 80 111 114 100 90 91 96 96 93 90 89 89 88 88 90 91 90 91 91 90 90 89 89 88
146 148 150 148 149 154 157 159 159 158 159 162 164 164 164 163 162 162 163 164 163 160 156 155 158 157 156 158 157 162 163 156 155 158 160 159 152 149 150 151 147 144 137 121 113 108 97 95 99 97 107 127 134 131 121 105 94 83 76 71 68 87 114 113 101 95 92 93 93 94 92 89 89 89 89 89 90 89 90 91 90 89 87 87 87
145 150 152 153 155 158 161 162 161 161 163 164 166 168 166 165 165 166 167 168 166 162 159 159 161 158 156 158 159 166 169 163 161 163 166 165 155 150 152 154 154 152 132 121 118 109 100 103 105 102 106 126 138 132 118 105 92 81 77 71 72 98 117 113 105 99 93 92 93 96 95 94 94 91 90 89 89 89 89 91 93 90 87 89 88
146 152 155 158 160 161 163 163 164 165 166 166 166 168 168 167 167 168 169 168 166 164 162 164 164 161 158 158 161 165 170 170 167 167 171 171 161 153 153 157 162 151 129 124 124 113 106 110 113 110 105 119 137 133 118 105 92 83 78 70 77 107 116 108 102 94 93 95 98 100 99 99 96 93 92 92 91 92 90 91 93 92 93 93 91
150 155 158 161 161 161 161 163 166 166 168 167 166 167 168 169 169 170 169 166 165 165 166 167 166 164 162 160 161 165 172 173 173 174 174 177 171 161 157 162 166 147 131 131 130 121 114 115 119 118 108 115 130 131 119 105 94 86 78 74 85 110 115 103 96 89 93 98 102 105 105 103 99 98 97 97 96 95 94 92 92 92 93 93 92
154 158 163 166 162 162 162 164 167 168 169 168 168 167 168 169 168 167 166 164 164 166 168 169 168 166 164 163 163 166 173 176 178 180 178 180 177 169 164 166 165 148 139 140 138 130 122 118 120 122 117 117 124 125 115 104 95 82 78 80 90 113 115 101 90 84 92 99 102 105 107 105 103 103 101 100 99 96 96 95 93 92 92 91 90
157 160 167 170 167 166 165 166 168 171 171 169 168 166 166 167 165 164 164 163 163 165 169 170 169 168 167 165 165 168 173 178 181 186 185 180 176 173 170 168 160 153 148 146 147 141 132 127 122 123 127 126 128 125 113 105 92 78 82 86 97 121 118 99 86 82 91 100 101 104 107 108 107 105 104 103 101 98 98 99 97 94 94 93 89
160 162 167 172 172 170 168 168 169 171 170 168 166 164 164 164 163 163 162 161 161 164 167 168 169 169 172 167 166 171 175 180 183 186 185 178 174 174 175 172 159 155 154 151 155 150 142 138 130 124 127 130 134 130 116 103 86 80 92 88 101 123 120 105 97 86 94 104 105 108 110 110 110 109 108 105 102 101 100 101 100 97 96 95 91
164 165 170 174 177 175 171 170 169 170 169 166 164 163 163 163 164 164 162 160 159 160 162 164 168 170 173 169 170 174 177 182 180 174 176 179 177 175 182 184 171 165 161 156 161 159 153 149 140 129 123 123 123 117 111 101 91 114 103 91 104 122 128 120 106 95 104 109 108 111 113 111 110 110 110 107 104 104 103 104 100 98 97 96 94
168 169 173 176 179 178 173 170 169 169 170 167 163 162 162 163 165 164 162 160 158 159 160 163 166 170 171 172 176 177 181 183 173 168 176 180 178 178 191 197 187 179 175 170 168 166 163 155 147 139 130 124 121 118 121 107 160 177 125 100 110 119 132 129 106 99 109 112 112 117 120 117 114 113 113 111 110 107 105 108 106 102 100 99 97
171 174 176 178 179 178 174 170 168 170 172 170 165 162 162 163 163 163 163 162 162 163 164 165 164 167 171 175 180 178 182 183 174 174 180 180 180 186 197 202 193 190 190 183 175 173 171 161 151 144 136 132 130 148 174 188 251 222 233 147 139 141 139 131 112 106 115 115 117 124 129 127 122 119 118 116 113 110 105 106 108 106 104 103 100
171 177 178 178 178 178 175 170 170 172 173 172 167 164 164 166 164 164 166 166 167 167 168 167 163 166 172 176 183 181 179 181 178 178 181 181 186 190 191 193 192 194 196 194 184 176 176 172 160 151 141 138 129 148 186 209 236 234 227 164 154 162 153 135 123 120 124 120 116 122 128 127 120 118 119 118 115 111 108 106 106 106 104 103 101
170 176 178 177 177 179 176 173 174 174 173 172 169 169 169 170 170 171 173 173 173 173 171 168 164 170 176 177 182 183 177 179 180 178 180 184 187 187 182 183 188 189 192 195 186 177 183 181 165 157 155 151 147 158 191 208 219 226 226 177 146 153 156 141 128 128 128 123 118 118 123 123 119 120 120 116 114 112 111 109 108 110 110 109 110
171 174 174 174 177 181 179 177 177 176 174 173 172 172 172 174 176 178 180 180 180 178 173 170 169 174 180 179 178 177 176 179 179 177 180 185 187 186 182 179 178 178 182 183 175 174 183 180 169 168 168 172 190 201 218 206 202 212 219 196 155 152 158 148 135 133 129 123 120 118 122 125 126 125 122 119 117 115 114 113 113 114 114 113 113
172 172 173 173 178 183 180 180 179 177 176 174 174 173 172 176 181 185 185 183 183 179 174 172 174 179 182 180 176 171 173 179 179 179 179 178 184 190 193 198 196 178 175 177 176 180 181 180 185 184 179 187 199 203 207 190 187 203 189 169 163 159 160 155 141 133 129 124 121 119 123 128 129 125 120 119 120 119 120 121 119 116 114 112 110
168 173 180 177 179 183 181 182 180 178 177 176 176 174 176 180 182 186 186 184 182 178 176 175 178 183 182 180 177 171 171 175 177 179 178 176 186 195 194 202 205 192 186 194 195 201 195 186 184 177 177 178 170 167 175 171 163 179 163 143 158 163 162 159 148 137 130 129 129 124 123 125 126 124 122 124 126 124 123 122 120 117 118 116 115
168 179 186 182 181 182 181 182 180 179 180 181 180 178 182 183 181 185 185 183 182 181 181 180 182 184 182 181 181 178 175 174 172 176 181 182 190 196 182 165 175 180 187 203 200 203 201 192 184 170 168 167 152 141 152 157 141 155 161 146 158 164 164 163 153 141 135 135 136 130 125 123 123 126 130 132 128 122 120 118 119 119 121 120 114
173 185 186 186 183 179 179 180 181 183 182 187 187 181 185 187 181 180 180 180 180 182 184 184 186 184 181 183 185 184 182 179 176 175 178 182 187 193 183 164 166 172 177 194 193 199 200 190 183 161 154 167 141 128 143 149 138 147 162 161 164 166 165 165 155 147 142 137 138 137 133 127 123 124 128 132 129 125 124 123 121 118 120 122 117
174 180 180 184 182 176 178 181 184 185 183 191 194 185 188 190 177 168 170 178 180 185 186 184 185 182 180 184 186 186 186 185 184 180 176 178 179 180 178 169 170 172 178 196 192 196 201 195 188 153 157 181 135 125 148 145 142 150 161 164 165 168 168 164 157 154 149 141 141 142 140 134 130 127 127 133 134 133 132 129 126 119 114 115 117
169 173 175 180 179 177 181 184 185 184 185 193 194 189 193 194 177 162 164 176 183 187 186 183 182 182 182 183 185 186 183 179 179 180 173 172 169 162 165 164 164 164 168 191 196 195 196 199 195 154 167 185 132 134 148 138 142 152 162 166 165 168 169 163 160 160 156 149 146 144 144 142 139 138 136 137 136 135 135 132 128 121 113 110 108
166 169 172 176 178 180 183 187 186 184 188 190 189 193 201 200 179 166 169 177 184 185 183 183 184 186 186 185 185 185 181 172 166 165 164 165 162 157 162 165 167 162 162 179 192 197 194 207 206 159 172 182 143 146 149 138 143 144 147 153 159 168 168 163 161 162 160 156 153 148 147 147 146 148 149 148 144 140 138 136 131 126 123 115 105
163 168 170 175 180 181 183 188 188 188 189 187 192 197 199 193 167 166 173 174 180 182 181 187 189 189 187 186 185 181 180 175 164 158 159 164 164 163 163 162 163 162 169 184 192 197 193 208 213 154 166 173 154 153 148 137 135 133 132 134 144 161 166 166 165 163 163 164 164 158 154 156 156 153 154 159 160 154 148 148 142 138 138 127 118
162 171 174 179 180 180 184 188 186 188 188 189 196 195 189 168 149 165 178 173 180 186 188 193 193 192 191 189 184 177 177 179 175 171 173 174 171 170 165 162 163 166 176 184 189 192 191 193 177 138 158 164 156 152 145 133 126 131 135 131 140 155 165 169 167 166 171 172 169 167 166 167 167 161 160 160 164 167 162 163 160 150 150 143 137
165 166 168 174 180 183 188 188 181 186 192 192 193 186 174 135 137 166 179 174 184 190 193 194 188 190 193 193 187 183 185 187 187 187 189 185 178 173 170 172 175 176 179 177 179 186 189 183 156 138 155 158 155 148 143 136 134 148 141 132 144 153 162 171 167 167 170 168 165 170 176 177 173 169 169 162 160 172 173 175 172 159 158 154 149
157 144 143 162 185 189 190 189 185 192 195 191 188 183 167 124 126 169 184 179 180 182 188 190 184 186 190 191 191 192 193 193 190 189 190 185 180 178 178 181 181 179 179 178 180 180 182 172 147 148 150 147 152 145 139 136 136 142 132 132 147 144 147 160 161 162 161 167 168 169 177 182 179 176 177 169 161 168 171 173 172 165 167 161 154
146 143 149 165 186 192 192 190 191 197 197 190 184 183 176 154 151 176 185 184 180 178 180 181 187 193 191 191 194 194 193 192 188 188 187 181 181 183 184 187 180 177 180 182 186 177 172 160 150 167 152 138 147 148 143 138 128 125 124 131 138 126 127 139 150 161 156 165 173 171 177 180 179 179 180 175 170 172 169 169 168 161 167 166 156
155 164 165 169 182 192 197 195 197 202 201 195 185 180 185 181 178 181 183 187 187 183 175 175 189 196 192 191 193 192 189 188 188 190 186 180 183 185 188 192 181 179 182 182 188 179 172 160 154 177 156 137 147 156 155 149 133 132 131 124 114 107 112 125 144 157 149 154 168 172 180 178 175 178 181 178 174 176 174 173 171 159 157 162 157
168 173 164 169 182 190 198 198 201 204 202 200 190 182 188 191 189 184 183 192 196 190 177 182 193 192 191 194 192 190 188 186 187 189 185 182 186 186 188 191 182 183 185 181 185 180 176 164 160 181 164 140 147 160 164 163 147 139 131 127 131 108 102 112 126 136 141 149 159 167 174 173 171 175 180 178 171 168 171 175 175 168 160 159 159
178 179 162 172 186 188 195 198 200 203 202 200 191 188 194 197 197 188 188 196 196 187 179 187 192 187 192 197 193 191 188 184 182 185 186 185 188 190 190 190 183 185 188 181 176 175 171 162 169 189 170 147 148 159 172 175 156 147 134 126 138 126 124 131 117 111 144 152 153 158 160 160 163 167 168 167 165 162 164 170 175 180 175 168 169
187 191 171 177 187 186 193 197 197 198 198 194 189 192 199 200 194 183 187 192 186 177 174 181 188 188 192 195 195 193 187 184 183 185 187 187 191 195 191 187 184 184 186 178 167 168 169 166 177 188 172 162 157 154 162 172 165 159 148 136 130 123 187 156 131 113 145 157 155 154 153 154 156 159 154 150 154 157 156 160 169 180 181 179 179
190 194 181 181 185 186 193 196 194 192 192 192 191 192 193 192 186 174 175 179 177 177 177 181 188 188 187 189 191 190 186 185 187 185 187 191 194 194 190 187 187 181 179 177 167 165 170 173 182 183 174 172 166 156 156 168 175 174 162 152 155 165 157 153 140 107 131 151 156 159 160 155 151 154 155 149 149 152 152 151 156 165 171 177 178
188 190 191 190 184 186 194 194 191 188 188 190 192 190 185 185 185 177 172 173 177 183 184 186 188 186 184 183 184 185 185 187 188 187 190 197 197 193 190 187 184 176 171 175 174 172 173 176 184 183 178 176 172 163 160 168 177 177 170 154 128 154 158 157 153 140 133 146 153 156 158 159 158 158 158 155 153 154 155 154 155 158 163 171 173
184 185 195 199 189 188 193 192 189 185 185 185 187 190 186 184 185 180 174 176 180 183 186 189 189 186 182 180 181 184 185 187 188 188 192 197 197 193 191 185 180 175 174 180 178 175 178 182 185 183 181 179 180 175 166 170 174 166 158 141 123 144 159 164 161 149 130 122 147 149 152 158 162 159 158 159 157 156 160 162 161 160 162 168 172
184 184 192 198 196 191 190 188 186 183 183 183 184 188 187 185 185 182 180 184 185 181 185 188 187 185 180 178 181 184 186 187 187 189 192 193 192 191 189 180 175 176 180 183 179 176 182 187 187 184 184 180 181 183 175 175 178 167 154 142 133 137 146 157 160 152 139 142 147 143 152 150 149 154 156 154 148 149 156 162 165 162 163 168 173
188 190 191 194 195 192 188 185 185 185 183 183 186 187 187 186 186 185 180 183 185 179 179 183 185 186 181 177 180 183 184 185 184 184 183 179 176 182 183 179 177 177 180 182 180 179 179 185 188 188 191 186 177 177 176 177 181 174 163 154 149 146 140 144 156 154 149 149 144 151 161 156 147 155 159 150 144 147 154 159 160 158 160 167 172
194 198 196 193 191 189 187 183 184 186 184 186 188 186 186 185 187 187 178 176 180 177 174 176 181 185 183 179 180 183 181 177 175 172 170 163 158 171 176 174 175 173 176 182 182 180 177 180 188 189 190 189 178 169 167 170 175 175 174 169 165 163 162 163 163 158 155 150 141 151 166 160 149 153 158 152 149 152 154 153 153 155 162 168 172